TimeEST,TemperatureF,Dew PointF,Humidity,Sea Level PressureIn,VisibilityMPH,Wind Direction,Wind SpeedMPH,Gust SpeedMPH,PrecipitationIn,Events,Conditions,WindDirDegrees,DateUTC
12:15 AM,50.0,50.0,100,30.31,4.0,Calm,Calm,-,N/A,,Clear,0,2012-11-30 05:15:00
12:35 AM,50.0,50.0,100,30.31,3.0,Calm,Calm,-,N/A,,Clear,0,2012-11-30 05:35:00
1:15 AM,50.0,50.0,100,30.30,5.0,Calm,Calm,-,N/A,,Partly Cloudy,0,2012-11-30 06:15:00
1:35 AM,50.0,50.0,100,30.30,4.0,Calm,Calm,-,N/A,,Partly Cloudy,0,2012-11-30 06:35:00
1:55 AM,48.2,48.2,100,30.30,4.0,Calm,Calm,-,N/A,,Partly Cloudy,0,2012-11-30 06:55:00
2:15 AM,50.0,50.0,100,30.30,5.0,Calm,Calm,-,N/A,,Scattered Clouds,0,2012-11-30 07:15:00
2:35 AM,50.0,50.0,100,30.29,5.0,Calm,Calm,-,N/A,,Scattered Clouds,0,2012-11-30 07:35:00
2:55 AM,50.0,50.0,100,30.29,4.0,Calm,Calm,-,N/A,,Scattered Clouds,0,2012-11-30 07:55:00
3:15 AM,50.0,50.0,100,30.29,4.0,Calm,Calm,-,N/A,,Partly Cloudy,0,2012-11-30 08:15:00
3:35 AM,48.2,48.2,100,30.29,3.0,Calm,Calm,-,N/A,,Scattered Clouds,0,2012-11-30 08:35:00
3:55 AM,50.0,50.0,100,30.30,5.0,Calm,Calm,-,N/A,,Mostly Cloudy,0,2012-11-30 08:55:00
4:15 AM,50.0,50.0,100,30.29,5.0,Calm,Calm,-,N/A,,Mostly Cloudy,0,2012-11-30 09:15:00
4:35 AM,51.8,51.8,100,30.30,5.0,Calm,Calm,-,N/A,,Mostly Cloudy,0,2012-11-30 09:35:00
4:55 AM,51.8,51.8,100,30.30,7.0,Calm,Calm,-,N/A,,Mostly Cloudy,0,2012-11-30 09:55:00
5:15 AM,50.0,50.0,100,30.30,5.0,Calm,Calm,-,N/A,,Scattered Clouds,0,2012-11-30 10:15:00
5:35 AM,50.0,50.0,100,30.30,5.0,Calm,Calm,-,N/A,,Scattered Clouds,0,2012-11-30 10:35:00
5:55 AM,50.0,50.0,100,30.31,4.0,Calm,Calm,-,N/A,,Scattered Clouds,0,2012-11-30 10:55:00
6:15 AM,48.2,48.2,100,30.31,1.5,Calm,Calm,-,N/A,,Clear,0,2012-11-30 11:15:00
6:35 AM,48.2,48.2,100,30.31,3.0,Calm,Calm,-,N/A,,Clear,0,2012-11-30 11:35:00
6:50 AM,48.2,48.2,100,30.31,7.0,North,4.6,-,N/A,,Clear,360,2012-11-30 11:50:00
7:50 AM,51.8,51.8,100,30.32,10.0,North,4.6,-,N/A,,Mostly Cloudy,10,2012-11-30 12:50:00
8:50 AM,57.2,57.2,100,30.33,10.0,NNE,4.6,-,N/A,,Scattered Clouds,30,2012-11-30 13:50:00
9:50 AM,62.6,57.2,82,30.33,10.0,NNE,4.6,-,N/A,,Clear,30,2012-11-30 14:50:00
10:50 AM,66.2,57.2,73,30.32,10.0,NNE,4.6,-,N/A,,Clear,30,2012-11-30 15:50:00
11:50 AM,68.0,57.2,68,30.30,10.0,NNE,5.8,-,N/A,,Clear,30,2012-11-30 16:50:00
12:50 PM,71.6,55.4,57,30.28,10.0,ENE,5.8,-,N/A,,Scattered Clouds,60,2012-11-30 17:50:00
1:50 PM,73.4,55.4,53,30.26,10.0,Variable,6.9,-,N/A,,Scattered Clouds,0,2012-11-30 18:50:00
2:50 PM,71.6,55.4,57,30.24,10.0,Variable,5.8,-,N/A,,Scattered Clouds,0,2012-11-30 19:50:00
3:50 PM,71.6,53.6,53,30.24,10.0,NE,8.1,-,N/A,,Scattered Clouds,50,2012-11-30 20:50:00
4:50 PM,68.0,55.4,64,30.24,10.0,NE,5.8,-,N/A,,Partly Cloudy,50,2012-11-30 21:50:00
6:50 PM,62.6,57.2,82,30.25,10.0,Calm,Calm,-,N/A,,Mostly Cloudy,0,2012-11-30 23:50:00
7:50 PM,57.2,55.4,94,30.26,10.0,Calm,Calm,-,N/A,,Partly Cloudy,0,2012-12-01 00:50:00
8:15 PM,57.2,55.4,94,30.27,10.0,Calm,Calm,-,N/A,,Mostly Cloudy,0,2012-12-01 01:15:00
8:35 PM,57.2,55.4,94,30.27,10.0,Calm,Calm,-,N/A,,Scattered Clouds,0,2012-12-01 01:35:00
8:55 PM,57.2,55.4,94,30.27,10.0,Calm,Calm,-,N/A,,Scattered Clouds,0,2012-12-01 01:55:00
9:15 PM,55.4,55.4,100,30.27,10.0,Calm,Calm,-,N/A,,Scattered Clouds,0,2012-12-01 02:15:00
9:35 PM,55.4,55.4,100,30.27,10.0,Calm,Calm,-,N/A,,Scattered Clouds,0,2012-12-01 02:35:00
9:55 PM,53.6,53.6,100,30.27,8.0,Calm,Calm,-,N/A,,Scattered Clouds,0,2012-12-01 02:55:00
10:15 PM,55.4,55.4,100,30.27,10.0,Calm,Calm,-,N/A,,Mostly Cloudy,0,2012-12-01 03:15:00
10:35 PM,55.4,53.6,94,30.27,9.0,Calm,Calm,-,N/A,,Mostly Cloudy,0,2012-12-01 03:35:00
11:15 PM,53.6,53.6,100,30.27,7.0,Calm,Calm,-,N/A,,Scattered Clouds,0,2012-12-01 04:15:00
11:35 PM,53.6,53.6,100,30.26,7.0,Calm,Calm,-,N/A,,Partly Cloudy,0,2012-12-01 04:35:00